CCA5226 VHHH-ZSPD

Flight info

Callsign CCA5226
Flight time 1h 52m
Altitude 35000
Route LEKEN V601 DOTMI/K0850S1070 A470 LJG B221 SHZ W58 BK BK83A
Aircraft B738/M-SDE2E3FGHIRWXY/SB1

Departure

Time 2026-05-05 06:48
Airport Hong Kong International Airport (VHHH)

Arrival

Time 2026-05-05 08:40
Airport Shanghai Pudong International Airport (ZSPD)
Time Latitude Longitude Altitude Speed Heading
2026-05-05 05:51 22.30926 113.90685 35 ft 0 kts 251°
2026-05-05 06:33 22.30928 113.90691 34 ft 2 kts 251°
2026-05-05 06:34 22.30933 113.90707 34 ft 2 kts 251°
2026-05-05 06:34 22.30937 113.90721 34 ft 2 kts 251°
2026-05-05 06:34 22.30940 113.90737 34 ft 2 kts 272°
2026-05-05 06:34 22.30938 113.90753 34 ft 2 kts 288°
2026-05-05 06:35 22.30932 113.90768 34 ft 2 kts 305°
2026-05-05 06:35 22.30922 113.90779 34 ft 2 kts 322°
2026-05-05 06:35 22.30909 113.90788 34 ft 0 kts 339°
2026-05-05 06:35 22.30904 113.90789 34 ft 1 kts 342°
2026-05-05 06:36 22.30902 113.90790 34 ft 0 kts 342°
2026-05-05 06:40 22.30925 113.90781 34 ft 10 kts 342°
2026-05-05 06:40 22.30993 113.90758 34 ft 9 kts 342°
2026-05-05 06:40 22.31050 113.90738 34 ft 8 kts 341°
2026-05-05 06:40 22.31064 113.90730 34 ft 0 kts 325°
2026-05-05 06:41 22.31077 113.90722 34 ft 9 kts 330°
2026-05-05 06:41 22.31137 113.90682 34 ft 6 kts 315°
2026-05-05 06:41 22.31154 113.90655 34 ft 9 kts 293°
2026-05-05 06:41 22.31144 113.90537 34 ft 22 kts 252°
2026-05-05 06:42 22.31087 113.90359 34 ft 27 kts 250°
2026-05-05 06:42 22.31017 113.90149 34 ft 31 kts 250°
2026-05-05 06:42 22.30948 113.89934 34 ft 27 kts 252°
2026-05-05 06:42 22.30915 113.89824 34 ft 2 kts 251°
2026-05-05 06:43 22.30910 113.89810 34 ft 1 kts 251°
2026-05-05 06:43 22.30897 113.89760 34 ft 12 kts 261°
2026-05-05 06:43 22.30901 113.89735 34 ft 0 kts 306°
2026-05-05 06:43 22.30901 113.89734 34 ft 0 kts 306°
2026-05-05 06:44 22.30911 113.89722 34 ft 0 kts 323°
2026-05-05 06:45 22.30912 113.89722 34 ft 0 kts 324°
2026-05-05 06:46 22.30947 113.89703 34 ft 11 kts 346°
2026-05-05 06:46 22.31023 113.89728 34 ft 13 kts 39°
2026-05-05 06:46 22.31095 113.89819 34 ft 19 kts 62°
2026-05-05 06:47 22.31152 113.89977 34 ft 30 kts 73°
2026-05-05 06:47 22.31292 113.90417 34 ft 95 kts 69°
2026-05-05 06:47 22.31574 113.91299 35 ft 153 kts 71°
2026-05-05 06:47 22.31983 113.92553 143 ft 191 kts 71°
2026-05-05 06:48 22.32394 113.93835 1150 ft 173 kts 71°
2026-05-05 06:48 22.32755 113.94997 1965 ft 168 kts 72°
2026-05-05 06:48 22.33140 113.96287 2267 ft 194 kts 72°
2026-05-05 06:48 22.33528 113.97642 2950 ft 183 kts 71°
2026-05-05 06:49 22.34204 113.98881 3041 ft 206 kts 46°
2026-05-05 06:49 22.35265 114.00036 3392 ft 221 kts 48°
2026-05-05 06:49 22.36229 114.01324 3957 ft 225 kts 54°
2026-05-05 06:49 22.37128 114.02728 4552 ft 228 kts 56°
2026-05-05 06:50 22.38004 114.04153 4959 ft 233 kts 56°
2026-05-05 06:50 22.38915 114.05624 4974 ft 232 kts 56°
2026-05-05 06:50 22.39741 114.07103 4974 ft 230 kts 66°
2026-05-05 06:50 22.40086 114.08775 4978 ft 235 kts 94°
2026-05-05 06:51 22.39637 114.10577 4989 ft 261 kts 113°
2026-05-05 06:51 22.38874 114.12386 5014 ft 275 kts 115°
2026-05-05 06:51 22.38064 114.14287 5699 ft 275 kts 114°
2026-05-05 06:51 22.37295 114.16146 6419 ft 275 kts 114°
2026-05-05 06:52 22.36527 114.18037 7095 ft 277 kts 113°
2026-05-05 06:52 22.35748 114.19968 7772 ft 280 kts 113°
2026-05-05 06:52 22.34975 114.21890 8440 ft 283 kts 113°
2026-05-05 06:52 22.34184 114.23852 9120 ft 285 kts 113°
2026-05-05 06:53 22.33338 114.25768 9781 ft 288 kts 120°
2026-05-05 06:53 22.32078 114.27441 10362 ft 294 kts 141°
2026-05-05 06:53 22.30272 114.28593 10726 ft 309 kts 155°
2026-05-05 06:53 22.28240 114.29543 11058 ft 325 kts 157°
2026-05-05 06:54 22.26098 114.30514 11387 ft 340 kts 157°
2026-05-05 06:54 22.23896 114.31597 11714 ft 356 kts 152°
2026-05-05 06:54 22.21757 114.32990 12314 ft 362 kts 146°
2026-05-05 06:54 22.19684 114.34595 12984 ft 367 kts 143°
2026-05-05 06:55 22.17651 114.36270 13670 ft 371 kts 142°
2026-05-05 06:55 22.15623 114.37956 14358 ft 375 kts 142°
2026-05-05 06:55 22.13533 114.39671 15061 ft 379 kts 142°
2026-05-05 06:55 22.11407 114.41386 15761 ft 382 kts 143°
2026-05-05 06:56 22.09277 114.43085 16437 ft 386 kts 143°
2026-05-05 06:56 22.07095 114.44810 17102 ft 390 kts 143°
2026-05-05 06:56 22.04894 114.46543 17750 ft 394 kts 143°
2026-05-05 06:56 22.02657 114.48302 18390 ft 398 kts 143°
2026-05-05 06:57 22.00441 114.50068 18996 ft 401 kts 141°
2026-05-05 06:57 21.98351 114.52104 19594 ft 405 kts 133°
2026-05-05 06:57 21.96630 114.54475 20174 ft 408 kts 122°
2026-05-05 06:57 21.95296 114.57215 20748 ft 412 kts 112°
2026-05-05 06:58 21.94407 114.60139 21304 ft 415 kts 104°
2026-05-05 06:58 21.93774 114.63184 21846 ft 419 kts 101°
2026-05-05 06:58 21.93238 114.66277 22377 ft 422 kts 100°
2026-05-05 06:58 21.92721 114.69355 22890 ft 425 kts 100°
2026-05-05 06:59 21.92167 114.72511 23400 ft 429 kts 101°
2026-05-05 06:59 21.91584 114.75642 23894 ft 432 kts 102°
2026-05-05 06:59 21.90959 114.78827 24381 ft 435 kts 102°
2026-05-05 06:59 21.90313 114.81996 24853 ft 438 kts 102°
2026-05-05 07:00 21.89641 114.85212 25317 ft 441 kts 102°
2026-05-05 07:00 21.89043 114.88463 25766 ft 444 kts 99°
2026-05-05 07:00 21.88648 114.91735 26200 ft 447 kts 95°
2026-05-05 07:00 21.88483 114.95102 26634 ft 450 kts 91°
2026-05-05 07:01 21.88476 114.98420 27051 ft 453 kts 89°
2026-05-05 07:01 21.88555 115.01826 27467 ft 456 kts 88°
2026-05-05 07:01 21.88676 115.05248 27872 ft 459 kts 88°
2026-05-05 07:01 21.88812 115.08677 28266 ft 461 kts 87°
2026-05-05 07:02 21.88949 115.12117 28774 ft 461 kts 87°
2026-05-05 07:02 21.89081 115.15524 29374 ft 458 kts 88°
2026-05-05 07:02 21.89208 115.18971 29885 ft 457 kts 88°
2026-05-05 07:02 21.89327 115.22357 30364 ft 456 kts 88°
2026-05-05 07:03 21.89440 115.25731 30842 ft 454 kts 88°
2026-05-05 07:03 21.89550 115.29140 31307 ft 453 kts 88°
2026-05-05 07:03 21.89656 115.32511 31745 ft 452 kts 88°
2026-05-05 07:03 21.89758 115.35865 32164 ft 451 kts 88°
2026-05-05 07:04 21.89860 115.39222 32571 ft 451 kts 88°
2026-05-05 07:04 21.89960 115.42586 32968 ft 450 kts 88°
2026-05-05 07:04 21.90059 115.45966 33354 ft 449 kts 88°
2026-05-05 07:04 21.90156 115.49303 33721 ft 448 kts 88°
2026-05-05 07:05 21.90252 115.52649 34081 ft 448 kts 88°
2026-05-05 07:05 21.90348 115.56001 34433 ft 447 kts 88°
2026-05-05 07:05 21.90455 115.59325 34767 ft 446 kts 87°
2026-05-05 07:05 21.90695 115.62618 34993 ft 447 kts 83°
2026-05-05 07:06 21.91153 115.65942 35000 ft 449 kts 80°
2026-05-05 07:06 21.92405 115.72482 35001 ft 445 kts 77°
2026-05-05 07:07 21.93782 115.78955 35001 ft 446 kts 77°
2026-05-05 07:07 21.95154 115.85436 35001 ft 446 kts 77°
2026-05-05 07:08 21.96506 115.91969 35001 ft 446 kts 77°
2026-05-05 07:08 21.97828 115.98460 35000 ft 446 kts 78°
2026-05-05 07:09 21.99301 116.04909 34999 ft 446 kts 71°
2026-05-05 07:09 22.00659 116.07903 34999 ft 445 kts 53°
2026-05-05 07:09 22.02855 116.10197 35003 ft 446 kts 33°
2026-05-05 07:09 22.05697 116.11533 35002 ft 446 kts 12°
2026-05-05 07:10 22.08774 116.11707 35002 ft 446 kts 352°
2026-05-05 07:10 22.11784 116.10879 35007 ft 446 kts 340°
2026-05-05 07:10 22.14680 116.09628 34999 ft 446 kts 336°
2026-05-05 07:11 22.20420 116.07050 35000 ft 446 kts 339°
2026-05-05 07:11 22.26275 116.04900 35001 ft 446 kts 343°
2026-05-05 07:12 22.32300 116.03346 35001 ft 446 kts 349°
2026-05-05 07:12 22.38472 116.02477 35004 ft 446 kts 356°
2026-05-05 07:13 22.44682 116.02377 35001 ft 446 kts
2026-05-05 07:13 22.50873 116.03123 35001 ft 446 kts 10°
2026-05-05 07:14 22.56868 116.04777 35001 ft 446 kts 19°
2026-05-05 07:14 22.62589 116.07423 35001 ft 446 kts 28°
2026-05-05 07:15 22.67774 116.11086 35001 ft 446 kts 39°
2026-05-05 07:15 22.72201 116.15797 35000 ft 446 kts 51°
2026-05-05 07:16 22.76187 116.20958 34999 ft 446 kts 44°
2026-05-05 07:16 22.81000 116.25173 35001 ft 446 kts 36°
2026-05-05 07:17 22.86089 116.29067 35001 ft 445 kts 35°
2026-05-05 07:17 22.91116 116.32974 35001 ft 445 kts 36°
2026-05-05 07:18 22.96116 116.36996 35001 ft 445 kts 37°
2026-05-05 07:18 23.01089 116.41058 35001 ft 445 kts 37°
2026-05-05 07:19 23.06014 116.45109 35001 ft 445 kts 37°
2026-05-05 07:19 23.10948 116.49183 35001 ft 445 kts 37°
2026-05-05 07:20 23.15910 116.53288 35001 ft 445 kts 37°
2026-05-05 07:20 23.20838 116.57372 35001 ft 445 kts 37°
2026-05-05 07:21 23.25784 116.61475 35001 ft 445 kts 37°
2026-05-05 07:21 23.30679 116.65538 35001 ft 445 kts 38°
2026-05-05 07:22 23.35617 116.69641 35001 ft 445 kts 38°
2026-05-05 07:22 23.40540 116.73736 35001 ft 445 kts 38°
2026-05-05 07:23 23.45324 116.77992 35001 ft 445 kts 43°
2026-05-05 07:23 23.49728 116.82790 35001 ft 445 kts 46°
2026-05-05 07:24 23.53938 116.87667 35001 ft 445 kts 47°
2026-05-05 07:24 23.58190 116.92601 35001 ft 445 kts 47°
2026-05-05 07:25 23.62454 116.97508 35001 ft 445 kts 46°
2026-05-05 07:25 23.66720 117.02389 35001 ft 445 kts 46°
2026-05-05 07:26 23.70973 117.07243 35001 ft 445 kts 46°
2026-05-05 07:26 23.75261 117.12135 35001 ft 445 kts 46°
2026-05-05 07:27 23.79631 117.16889 35001 ft 445 kts 43°
2026-05-05 07:27 23.84269 117.21395 35000 ft 445 kts 41°
2026-05-05 07:28 23.88923 117.25824 35000 ft 445 kts 41°
2026-05-05 07:28 23.93595 117.30308 35000 ft 445 kts 41°
2026-05-05 07:29 23.98221 117.34794 35000 ft 445 kts 41°
2026-05-05 07:29 24.02844 117.39304 35000 ft 445 kts 41°
2026-05-05 07:30 24.07438 117.43804 35000 ft 445 kts 41°
2026-05-05 07:30 24.14306 117.50588 35000 ft 445 kts 44°
2026-05-05 07:31 24.18617 117.55496 35000 ft 445 kts 47°
2026-05-05 07:31 24.22711 117.60503 35000 ft 445 kts 48°
2026-05-05 07:32 24.26843 117.65579 35000 ft 445 kts 48°
2026-05-05 07:32 24.30955 117.70587 35000 ft 445 kts 48°
2026-05-05 07:33 24.35118 117.75624 35000 ft 445 kts 48°
2026-05-05 07:33 24.39286 117.80653 35000 ft 445 kts 48°
2026-05-05 07:34 24.43468 117.85697 35000 ft 445 kts 48°
2026-05-05 07:34 24.47619 117.90706 35000 ft 445 kts 48°
2026-05-05 07:35 24.51778 117.95729 35000 ft 445 kts 48°
2026-05-05 07:35 24.55933 118.00754 35000 ft 445 kts 48°
2026-05-05 07:36 24.60179 118.05749 35000 ft 445 kts 46°
2026-05-05 07:36 24.64487 118.10616 35000 ft 445 kts 46°
2026-05-05 07:37 24.68815 118.15482 35000 ft 445 kts 46°
2026-05-05 07:37 24.73125 118.20352 35000 ft 445 kts 46°
2026-05-05 07:38 24.77412 118.25223 35001 ft 445 kts 46°
2026-05-05 07:38 24.81706 118.30119 35001 ft 445 kts 46°
2026-05-05 07:39 24.86010 118.35033 35000 ft 445 kts 46°
2026-05-05 07:39 24.90310 118.39951 35000 ft 445 kts 46°
2026-05-05 07:40 24.94571 118.44830 35000 ft 445 kts 46°
2026-05-05 07:40 24.98858 118.49744 35000 ft 445 kts 46°
2026-05-05 07:41 25.03136 118.54653 35000 ft 445 kts 46°
2026-05-05 07:41 25.07407 118.59559 35000 ft 445 kts 46°
2026-05-05 07:42 25.11662 118.64494 35000 ft 445 kts 47°
2026-05-05 07:42 25.15843 118.69524 35000 ft 445 kts 48°
2026-05-05 07:43 25.19993 118.74569 35001 ft 445 kts 48°
2026-05-05 07:43 25.24163 118.79637 35001 ft 445 kts 48°
2026-05-05 07:44 25.77793 119.43617 34983 ft 444 kts 45°
2026-05-05 07:44 25.84271 119.50311 34995 ft 443 kts 28°
2026-05-05 07:44 25.87189 119.51457 35004 ft 444 kts
2026-05-05 07:45 25.90303 119.51505 35009 ft 445 kts 354°
2026-05-05 07:45 25.93349 119.51063 35000 ft 445 kts 351°
2026-05-05 07:45 25.99521 119.50262 35000 ft 444 kts 356°
2026-05-05 07:46 26.05697 119.50378 35001 ft 444 kts
2026-05-05 07:46 26.11814 119.51572 35001 ft 444 kts 13°
2026-05-05 07:47 26.17796 119.53366 35000 ft 444 kts 17°
2026-05-05 07:47 26.23514 119.56013 35001 ft 444 kts 27°
2026-05-05 07:48 26.28851 119.59429 35001 ft 444 kts 31°
2026-05-05 07:48 26.34098 119.63112 35000 ft 444 kts 32°
2026-05-05 07:49 26.39294 119.66809 35000 ft 444 kts 33°
2026-05-05 07:49 26.44525 119.70521 35000 ft 444 kts 32°
2026-05-05 07:50 26.49778 119.74229 35000 ft 444 kts 32°
2026-05-05 07:50 26.54992 119.77897 35000 ft 444 kts 32°
2026-05-05 07:51 26.60257 119.81597 35000 ft 444 kts 32°
2026-05-05 07:51 26.65482 119.85272 35000 ft 444 kts 32°
2026-05-05 07:52 26.70722 119.88961 35000 ft 444 kts 32°
2026-05-05 07:52 26.75927 119.92629 35001 ft 444 kts 32°
2026-05-05 07:53 27.09090 120.16097 35002 ft 444 kts 32°
2026-05-05 07:53 27.82954 120.68597 34982 ft 443 kts 28°
2026-05-05 07:54 27.85796 120.69800 34999 ft 442 kts
2026-05-05 07:54 27.88868 120.69875 35009 ft 444 kts 352°
2026-05-05 07:54 27.94941 120.68282 35000 ft 444 kts 345°
2026-05-05 07:55 28.00962 120.66845 35000 ft 443 kts 352°
2026-05-05 07:55 28.07156 120.66380 35001 ft 443 kts
2026-05-05 07:56 28.13353 120.66629 35001 ft 443 kts
2026-05-05 07:56 28.19488 120.67162 35000 ft 443 kts
2026-05-05 07:57 28.25651 120.67776 35000 ft 443 kts
2026-05-05 07:57 28.31813 120.68401 35000 ft 443 kts
2026-05-05 07:58 28.37952 120.69018 35000 ft 443 kts
2026-05-05 07:58 28.44136 120.69633 35000 ft 443 kts
2026-05-05 07:59 28.50283 120.70248 35000 ft 443 kts
2026-05-05 07:59 28.56440 120.70869 35000 ft 443 kts
2026-05-05 08:00 28.62578 120.71490 35000 ft 443 kts
2026-05-05 08:00 28.68724 120.72110 35000 ft 443 kts
2026-05-05 08:01 28.74891 120.72760 35000 ft 443 kts
2026-05-05 08:01 28.81007 120.73435 35000 ft 443 kts
2026-05-05 08:02 28.87178 120.74119 35000 ft 443 kts
2026-05-05 08:02 28.93314 120.74766 35000 ft 443 kts
2026-05-05 08:03 28.99453 120.75395 35000 ft 443 kts
2026-05-05 08:03 29.05647 120.76028 35000 ft 443 kts
2026-05-05 08:04 29.11791 120.76659 35000 ft 443 kts
2026-05-05 08:04 29.17920 120.77290 34805 ft 445 kts
2026-05-05 08:05 29.20992 120.77607 34553 ft 443 kts
2026-05-05 08:05 29.24079 120.77926 34299 ft 440 kts
2026-05-05 08:05 29.27111 120.78239 34048 ft 438 kts
2026-05-05 08:05 29.30169 120.78556 33796 ft 437 kts
2026-05-05 08:06 29.33175 120.78867 33548 ft 435 kts
2026-05-05 08:06 29.36214 120.79182 33296 ft 434 kts
2026-05-05 08:06 29.39196 120.79492 33047 ft 432 kts
2026-05-05 08:06 29.42184 120.79802 32797 ft 430 kts
2026-05-05 08:07 29.45171 120.80112 32545 ft 428 kts
2026-05-05 08:07 29.48130 120.80420 32295 ft 427 kts
2026-05-05 08:07 29.51083 120.80731 32045 ft 425 kts
2026-05-05 08:07 29.53980 120.81220 31794 ft 423 kts 12°
2026-05-05 08:08 29.56799 120.82203 31541 ft 421 kts 23°
2026-05-05 08:08 29.59370 120.83791 31294 ft 420 kts 34°
2026-05-05 08:08 29.61648 120.85839 31047 ft 418 kts 42°
2026-05-05 08:08 29.63704 120.88213 30796 ft 417 kts 49°
2026-05-05 08:09 29.65497 120.90803 30547 ft 415 kts 54°
2026-05-05 08:09 29.67123 120.93504 30298 ft 413 kts 56°
2026-05-05 08:09 29.68703 120.96297 30044 ft 411 kts 57°
2026-05-05 08:09 29.70231 120.99055 29790 ft 408 kts 58°
2026-05-05 08:10 29.71727 121.01762 29434 ft 403 kts 57°
2026-05-05 08:10 29.73221 121.04456 29001 ft 399 kts 57°
2026-05-05 08:10 29.74711 121.07126 28555 ft 395 kts 57°
2026-05-05 08:10 29.76203 121.09782 28109 ft 392 kts 57°
2026-05-05 08:11 29.77690 121.12414 27663 ft 394 kts 57°
2026-05-05 08:11 29.79195 121.15069 27214 ft 396 kts 57°
2026-05-05 08:11 29.80688 121.17696 26763 ft 393 kts 57°
2026-05-05 08:11 29.82164 121.20290 26314 ft 389 kts 57°
2026-05-05 08:12 29.83647 121.22895 25859 ft 385 kts 57°
2026-05-05 08:12 29.85103 121.25452 25408 ft 382 kts 57°
2026-05-05 08:12 29.86544 121.27984 24960 ft 379 kts 57°
2026-05-05 08:12 29.88019 121.30510 24506 ft 377 kts 54°
2026-05-05 08:13 29.89650 121.32851 24053 ft 374 kts 46°
2026-05-05 08:13 29.91591 121.34801 23605 ft 372 kts 35°
2026-05-05 08:13 29.93773 121.36390 23155 ft 369 kts 29°
2026-05-05 08:13 29.96021 121.37784 22707 ft 367 kts 27°
2026-05-05 08:14 29.98277 121.39107 22260 ft 364 kts 26°
2026-05-05 08:14 30.00533 121.40424 21810 ft 361 kts 27°
2026-05-05 08:14 30.02770 121.41751 21358 ft 359 kts 27°
2026-05-05 08:14 30.04970 121.43082 20909 ft 357 kts 27°
2026-05-05 08:15 30.07138 121.44411 20462 ft 354 kts 28°
2026-05-05 08:15 30.09314 121.45759 20008 ft 352 kts 28°
2026-05-05 08:15 30.11433 121.47079 19563 ft 349 kts 28°
2026-05-05 08:15 30.13586 121.48426 19116 ft 346 kts 28°
2026-05-05 08:16 30.15679 121.49739 19001 ft 340 kts 28°
2026-05-05 08:16 30.17773 121.51056 19000 ft 346 kts 28°
2026-05-05 08:16 30.19903 121.52395 18999 ft 347 kts 28°
2026-05-05 08:16 30.22010 121.53722 19001 ft 346 kts 28°
2026-05-05 08:17 30.24139 121.55062 18957 ft 348 kts 28°
2026-05-05 08:17 30.26248 121.56393 18348 ft 354 kts 28°
2026-05-05 08:17 30.28438 121.57798 17594 ft 360 kts 29°
2026-05-05 08:17 30.30614 121.59209 16854 ft 364 kts 29°
2026-05-05 08:18 30.32825 121.60645 16106 ft 368 kts 29°
2026-05-05 08:18 30.35067 121.62103 15354 ft 371 kts 29°
2026-05-05 08:18 30.37321 121.63573 14602 ft 374 kts 30°
2026-05-05 08:18 30.39567 121.65098 13849 ft 375 kts 31°
2026-05-05 08:19 30.41806 121.66672 13096 ft 377 kts 32°
2026-05-05 08:19 30.44050 121.68269 12340 ft 378 kts 32°
2026-05-05 08:19 30.46287 121.69863 11588 ft 378 kts 32°
2026-05-05 08:19 30.48501 121.71436 10846 ft 378 kts 32°
2026-05-05 08:20 30.50759 121.73035 10074 ft 378 kts 31°
2026-05-05 08:20 30.52958 121.74588 9897 ft 361 kts 31°
2026-05-05 08:20 30.55049 121.76063 9897 ft 341 kts 31°
2026-05-05 08:20 30.57040 121.77358 9898 ft 322 kts 25°
2026-05-05 08:21 30.59101 121.78256 9900 ft 304 kts 16°
2026-05-05 08:21 30.61105 121.78809 9901 ft 289 kts 12°
2026-05-05 08:21 30.63066 121.79253 9903 ft 287 kts 11°
2026-05-05 08:21 30.65008 121.79700 9890 ft 279 kts 12°
2026-05-05 08:22 30.66892 121.80172 9844 ft 276 kts 13°
2026-05-05 08:22 30.68771 121.80669 9817 ft 271 kts 13°
2026-05-05 08:22 30.70582 121.81162 9791 ft 264 kts 13°
2026-05-05 08:22 30.72371 121.81651 9771 ft 266 kts 13°
2026-05-05 08:23 30.74186 121.82148 9746 ft 266 kts 13°
2026-05-05 08:23 30.75976 121.82636 9721 ft 266 kts 13°
2026-05-05 08:23 30.77778 121.83128 9672 ft 266 kts 13°
2026-05-05 08:23 30.79593 121.83622 9392 ft 267 kts 13°
2026-05-05 08:24 30.81395 121.84113 9117 ft 264 kts 13°
2026-05-05 08:24 30.83177 121.84599 8844 ft 262 kts 13°
2026-05-05 08:24 30.84950 121.85083 8570 ft 261 kts 13°
2026-05-05 08:24 30.86710 121.85563 8297 ft 260 kts 13°
2026-05-05 08:25 30.88462 121.86042 8023 ft 259 kts 13°
2026-05-05 08:25 30.90232 121.86525 7746 ft 258 kts 13°
2026-05-05 08:25 30.91989 121.87006 7469 ft 257 kts 13°
2026-05-05 08:25 30.93686 121.87626 7192 ft 256 kts 24°
2026-05-05 08:26 30.95251 121.88590 6922 ft 255 kts 31°
2026-05-05 08:26 30.96756 121.89678 6648 ft 254 kts 32°
2026-05-05 08:26 30.98263 121.90775 6370 ft 253 kts 32°
2026-05-05 08:26 30.99767 121.91833 6095 ft 252 kts 31°
2026-05-05 08:27 31.01258 121.92863 5822 ft 251 kts 31°
2026-05-05 08:27 31.02768 121.93896 5546 ft 250 kts 30°
2026-05-05 08:27 31.04266 121.94921 5270 ft 248 kts 30°
2026-05-05 08:27 31.05753 121.95938 4993 ft 246 kts 30°
2026-05-05 08:28 31.07242 121.96871 4717 ft 244 kts 22°
2026-05-05 08:28 31.08897 121.97258 4429 ft 241 kts 354°
2026-05-05 08:28 31.10504 121.96794 4167 ft 238 kts 340°
2026-05-05 08:28 31.12070 121.96111 3791 ft 241 kts 339°
2026-05-05 08:29 31.13669 121.95441 3414 ft 244 kts 341°
2026-05-05 08:29 31.15282 121.94813 3040 ft 246 kts 342°
2026-05-05 08:29 31.16890 121.94207 2888 ft 238 kts 342°
2026-05-05 08:30 31.19868 121.93093 2898 ft 211 kts 342°
2026-05-05 08:30 31.21252 121.92574 2904 ft 210 kts 342°
2026-05-05 08:30 31.22656 121.92045 2902 ft 211 kts 342°
2026-05-05 08:30 31.24042 121.91524 2901 ft 210 kts 342°
2026-05-05 08:31 31.25448 121.90994 2901 ft 210 kts 342°
2026-05-05 08:31 31.26835 121.90472 2901 ft 210 kts 342°
2026-05-05 08:31 31.28247 121.89939 2901 ft 210 kts 342°
2026-05-05 08:31 31.29631 121.89418 2901 ft 210 kts 342°
2026-05-05 08:32 31.31038 121.88888 2901 ft 210 kts 342°
2026-05-05 08:32 31.32438 121.88359 2901 ft 210 kts 342°
2026-05-05 08:32 31.33821 121.87838 2901 ft 210 kts 342°
2026-05-05 08:32 31.35224 121.87309 2901 ft 210 kts 342°
2026-05-05 08:33 31.36616 121.86783 2901 ft 210 kts 342°
2026-05-05 08:33 31.38020 121.86253 2901 ft 210 kts 342°
2026-05-05 08:33 31.39421 121.85723 2901 ft 210 kts 342°
2026-05-05 08:33 31.40789 121.85134 2898 ft 210 kts 333°
2026-05-05 08:34 31.41910 121.84039 2900 ft 211 kts 302°
2026-05-05 08:34 31.42407 121.82455 2907 ft 211 kts 277°
2026-05-05 08:34 31.42386 121.80740 2899 ft 211 kts 258°
2026-05-05 08:34 31.41787 121.79178 2902 ft 211 kts 231°
2026-05-05 08:35 31.40814 121.77914 2901 ft 211 kts 226°
2026-05-05 08:35 31.39815 121.76661 2900 ft 210 kts 228°
2026-05-05 08:35 31.38849 121.75396 2863 ft 202 kts 229°
2026-05-05 08:35 31.37908 121.74129 2889 ft 211 kts 229°
2026-05-05 08:36 31.36914 121.72822 2874 ft 217 kts 225°
2026-05-05 08:36 31.35723 121.71778 2863 ft 210 kts 200°
2026-05-05 08:36 31.34352 121.71662 2882 ft 194 kts 164°
2026-05-05 08:36 31.33083 121.72169 2887 ft 191 kts 160°
2026-05-05 08:37 31.31831 121.72665 2888 ft 188 kts 162°
2026-05-05 08:37 31.30585 121.73118 2896 ft 183 kts 165°
2026-05-05 08:37 31.29349 121.73486 2876 ft 185 kts 165°
2026-05-05 08:37 31.28104 121.73900 2880 ft 186 kts 163°
2026-05-05 08:38 31.26870 121.74365 2880 ft 186 kts 162°
2026-05-05 08:38 31.25620 121.74853 2642 ft 187 kts 161°
2026-05-05 08:38 31.24378 121.75340 2056 ft 192 kts 161°
2026-05-05 08:38 31.23079 121.75848 1340 ft 200 kts 161°
2026-05-05 08:39 31.21766 121.76361 867 ft 192 kts 161°
2026-05-05 08:39 31.20582 121.76824 809 ft 173 kts 161°
2026-05-05 08:39 31.19449 121.77288 770 ft 172 kts 160°
2026-05-05 08:39 31.18325 121.77769 557 ft 170 kts 160°
2026-05-05 08:40 31.17220 121.78179 285 ft 159 kts 163°
2026-05-05 08:40 31.16205 121.78575 46 ft 146 kts 161°
2026-05-05 08:40 31.15399 121.78878 21 ft 89 kts 162°
2026-05-05 08:40 31.15010 121.79027 21 ft 30 kts 162°
2026-05-05 08:41 31.14855 121.79085 21 ft 19 kts 163°
2026-05-05 08:41 31.14706 121.79137 21 ft 28 kts 163°
2026-05-05 08:41 31.14492 121.79250 21 ft 33 kts 132°
2026-05-05 08:41 31.14378 121.79398 21 ft 10 kts 132°
2026-05-05 08:42 31.14328 121.79462 21 ft 11 kts 133°
2026-05-05 08:42 31.14205 121.79547 21 ft 30 kts 161°
2026-05-05 08:42 31.14039 121.79683 21 ft 28 kts 91°
2026-05-05 08:42 31.14085 121.79908 21 ft 21 kts 110°
2026-05-05 08:43 31.14029 121.79973 21 ft 5 kts 131°
2026-05-05 08:43 31.13986 121.80051 21 ft 11 kts 122°
2026-05-05 08:43 31.13973 121.80074 21 ft 0 kts 123°
2026-05-05 08:43 31.13968 121.80081 21 ft 0 kts 129°
2026-05-05 08:44 31.13968 121.80082 21 ft 0 kts 126°